Regional Weather Roundup
Issued by NWS Northern Indiana

Home | Current Version | Previous Version | Text Only | Print | Product List | Glossary On
Versions: 1 2 3 4 5 6 7 8 9 10 11 12 13 14 15 16 17 18 19 20 21 22 23 24 25 26 27 28 29 30 31 32 33 34 35 36 37 38 39 40 41 42 43 44 45 46 47 48 49 50
000
ASUS43 KIWX 260310
RWRIWX

KIWX WEATHER ROUNDUP
NATIONAL WEATHER SERVICE NORTHERN INDIANA
1100 PM EDT TUE JUL 25 2017

NOTE: "FAIR" INDICATES FEW OR NO CLOUDS BELOW 12,000 FEET WITH NO
SIGNIFICANT WEATHER AND/OR OBSTRUCTIONS TO VISIBILITY.

* THESE STATIONS ARE NOT UNDER NWS QUALITY CONTROL. THEY ALSO MAY NOT
  REPORT WEATHER SUCH AS PRECIPITATION OR FOG.

INZ001>027-260400-
NORTHERN INDIANA

CITY           SKY/WX    TMP DP  RH WIND       PRES   REMARKS
GARY*          PTCLDY    64  59  82 SE5       30.17R
VALPARAISO     CLEAR     70  59  68 SE3       30.18R
MICHIGAN CITY* CLEAR     61  57  88 CALM      30.18S
LAPORTE*       CLEAR     62  59  90 CALM      30.18S
KNOX*          CLEAR     63  61  94 CALM      30.18R
SOUTH BEND     CLEAR     68  57  68 S6        30.18R
GOSHEN         CLEAR     66  56  70 S3        30.19R
MONTICELLO*    CLEAR     67  61  80 CALM      30.16R
LOGANSPORT*    CLEAR     63  59  88 E6        30.17R
ROCHESTER*     CLEAR     70  61  73 CALM      30.19R
WARSAW*        CLEAR     64  59  82 CALM      30.19R
AUBURN*        CLEAR     66  55  68 E3        30.19S
FORT WAYNE     PTCLDY    66  59  78 SE5       30.18S
HUNTINGTON*    CLEAR     66  60  81 SE5       30.17F
PERU/GRISSOM   CLEAR     67  62  84 E5        30.16R
MARION*        PTCLDY    64  59  82 SE5       30.18F

$$
INZ028>050-260400-
CENTRAL INDIANA

CITY           SKY/WX    TMP DP  RH WIND       PRES   REMARKS
LAFAYETTE      CLEAR     67  60  78 E6        30.15R
KOKOMO*        CLEAR     66  60  81 E8        30.17F
MUNCIE*        CLOUDY    66  60  81 SE6       30.18S
INDIANAPOLIS   PTCLDY    72  60  66 E8        30.15S

$$
MIZ043>046-050>051-056>058-064>065-071>073-077>080-260400-
SOUTHWEST LOWER MICHIGAN

CITY           SKY/WX    TMP DP  RH WIND       PRES   REMARKS
BATTLE CREEK   CLEAR     68  56  65 S6        30.20R
BENTON HARBOR  CLEAR     63  57  81 CALM      30.18R
COLDWATER*     CLEAR     65  58  76 CALM      30.19R
HILLSDALE*     MOCLDY    64  55  72 SE3       30.20S
HOLLAND        CLOUDY    64  60  87 S5        30.17R
GRAND RAPIDS   PTCLDY    70  57  63 S3        30.17R
KALAMAZOO      CLEAR     67  56  67 S5        30.19R
STURGIS*       CLEAR     67  58  71 SE7       30.19R
THREE RIVERS*  FAIR      66  56  71 CALM      30.20R

$$
OHZ001>008-015>018-024>025-260400-
NORTHWEST OHIO

CITY           SKY/WX    TMP DP  RH WIND       PRES   REMARKS
WAUSEON*       FAIR      61  57  88 SE7       30.20S
DEFIANCE       CLEAR    N/A N/A N/A E6        30.20S
FINDLAY        CLEAR     67  58  72 E7        30.20R
TOLEDO EXPRESS CLEAR     64  61  90 CALM      30.20S
TOLEDO METCALF CLEAR     65  61  87 SE5       30.21S
LIMA           CLEAR     63  61  93 E5        30.20S

$$
AND FOR LAKE MICHIGAN COASTAL AND OPEN LAKE BUOY OBSERVATIONS

STATION/POSITION TEMP    WIND        PRES    VSBY  WAVE
                 AIR SEA DIR/SP/G                  HT/PER
                 (F)     (DEG/KT/KT) (MB)    (MI)  (FT/S)
CALUMET HARBOR    74     150/  4/  6 1020.7R
MICHIGAN CITY     71     170/  5/  6   N/A
BURNS HARBOR      73     200/  7/  8 1022.0R
SAINT JOSEPH      69      CALM  /  1 1022.4
SOUTH LAKE BUOY   72 71  140/  8/ 10 1021.0R         1
4 MI NW BRIDGMAN  71 73  170/  4/  6 1021.3          1
MICHIGAN CITY     73 74  180/  6/  8   N/A           1

$$
&&



USA.gov is the U.S. government's official web portal to all federal, state and local government web resources and services.